Honolulu, HI

12:51 PM HST on February 12, 2016 (GMT -1000)
Honolulu International

Weather History for PHNL - January, 2013

Change the Weather History Date:

Tuesday, January 22, 2013

  Actual Average Record
Temperature  
Mean Temperature 76 °F 73 °F  
Max Temperature 81 °F 80 °F 87 °F (1978)
Min Temperature 70 °F 66 °F 54 °F (1969)
Degree Days  
Heating Degree Days 0 0  
Month to date heating degree days 0 0  
Since 1 July heating degree days 0 0  
Cooling Degree Days 11 8  
Month to date cooling degree days 150 178  
Year to date cooling degree days 150 178  
Growing Degree Days 26 (Base 50)    
Moisture  
Dew Point 59 °F    
Average Humidity 57    
Maximum Humidity 68    
Minimum Humidity 45    
Precipitation  
Precipitation 0.00 in 0.06 in 4.59 in (1950)
Month to date precipitation 0.65 1.75  
Year to date precipitation 0.65 1.75  
Snow  
Snow 0.00 in - - ()
Month to date snowfall 0.0  
Since 1 July snowfall 0.0  
Snow Depth 0.00 in    
Sea Level Pressure  
Sea Level Pressure 30.09 in    
Wind  
Wind Speed 11 mph (NE)    
Max Wind Speed 20 mph    
Max Gust Speed 25 mph    
Visibility 10 miles    
Events      
T = Trace of Precipitation, MM = Missing Value Source: NWS Daily Summary

Daily Weather History Graph

Daily Weather History Graph

Search for Another Location

Airport or City:

Trip Planner

Search our weather history database for the weather conditions in past years. The results will help you decide how hot, cold, wet, or windy it might be!

Date:

Astronomy

Jan. 22, 2013 Rise Set
Actual Time 7:11 AM HST 6:15 PM HST
Civil Twilight 6:47 AM HST 6:39 PM HST
Nautical Twilight 6:20 AM HST 7:06 PM HST
Astronomical Twilight 5:54 AM HST 7:33 PM HST
Moon 2:52 PM HST (1/22) 3:37 AM HST (1/22)
Length of Visible Light 11h 51m
Length of Day
11h 04m
Waxing Gibbous, 84% of the Moon is Illuminated
Jan 22
Waxing Gibbous
Jan 26
Full
Feb 3
Last Quarter
Feb 9
New
Feb 17
First Quarter

Hourly Weather History & Observations

Time (HST) Temp. Heat Index Dew Point Humidity Pressure Visibility Wind Dir Wind Speed Gust Speed Precip Events Conditions
12:53 AM 72.0 °F - 60.1 °F 66% 30.11 in 10.0 mi NNE 9.2 mph - N/A   Scattered Clouds
1:53 AM 72.0 °F - 59.0 °F 64% 30.11 in 10.0 mi NE 9.2 mph 18.4 mph N/A   Scattered Clouds
2:53 AM 71.1 °F - 59.0 °F 66% 30.10 in 10.0 mi NNE 6.9 mph - N/A   Scattered Clouds
3:53 AM 70.0 °F - 57.9 °F 65% 30.09 in 10.0 mi NE 5.8 mph - N/A   Partly Cloudy
4:53 AM 71.1 °F - 59.0 °F 66% 30.09 in 10.0 mi NNE 8.1 mph - N/A   Partly Cloudy
5:53 AM 71.1 °F - 57.9 °F 63% 30.11 in 10.0 mi ENE 5.8 mph - N/A   Partly Cloudy
6:53 AM 72.0 °F - 59.0 °F 64% 30.12 in 10.0 mi ENE 12.7 mph - N/A   Partly Cloudy
7:53 AM 73.0 °F - 60.1 °F 64% 30.13 in 10.0 mi East 8.1 mph - N/A   Scattered Clouds
8:53 AM 73.9 °F - 62.1 °F 66% 30.14 in 10.0 mi East 10.4 mph - N/A   Mostly Cloudy
9:53 AM 77.0 °F - 62.1 °F 60% 30.15 in 10.0 mi NE 15.0 mph - N/A   Scattered Clouds
10:53 AM 77.0 °F - 61.0 °F 58% 30.14 in 10.0 mi NE 16.1 mph - N/A   Mostly Cloudy
11:53 AM 77.0 °F - 62.1 °F 60% 30.12 in 10.0 mi ENE 10.4 mph - N/A   Mostly Cloudy
12:53 PM 80.1 °F 80.7 °F 59.0 °F 48% 30.09 in 10.0 mi ENE 13.8 mph 24.2 mph N/A   Scattered Clouds
1:53 PM 80.1 °F 80.6 °F 57.9 °F 47% 30.06 in 10.0 mi ENE 13.8 mph 18.4 mph N/A   Scattered Clouds
2:53 PM 80.1 °F 80.6 °F 57.9 °F 47% 30.05 in 10.0 mi NNE 13.8 mph 20.7 mph N/A   Scattered Clouds
3:53 PM 79.0 °F - 57.0 °F 47% 30.05 in 10.0 mi NE 12.7 mph 20.7 mph N/A   Partly Cloudy
4:53 PM 77.0 °F - 57.9 °F 52% 30.06 in 10.0 mi NE 16.1 mph 21.9 mph N/A   Partly Cloudy
5:53 PM 75.0 °F - 59.0 °F 57% 30.06 in 10.0 mi ENE 11.5 mph - N/A   Partly Cloudy
6:53 PM 73.0 °F - 59.0 °F 61% 30.08 in 10.0 mi NE 5.8 mph - N/A   Partly Cloudy
7:53 PM 73.0 °F - 59.0 °F 61% 30.08 in 10.0 mi ENE 15.0 mph 25.3 mph N/A   Scattered Clouds
8:53 PM 73.0 °F - 60.1 °F 64% 30.09 in 10.0 mi NE 9.2 mph - N/A   Scattered Clouds
9:53 PM 73.0 °F - 59.0 °F 61% 30.09 in 10.0 mi East 9.2 mph - N/A   Scattered Clouds
10:53 PM 73.0 °F - 60.1 °F 64% 30.09 in 10.0 mi ENE 9.2 mph 19.6 mph N/A   Mostly Cloudy
11:53 PM 73.0 °F - 59.0 °F 61% 30.07 in 10.0 mi ENE 12.7 mph - N/A   Overcast